Powrót do katalogu

HULIANWANG DIGUI-66

AktywnyŁącznośćPO
NORAD 65172·PAYLOAD·🇨🇳 China

Wystrzelony Aug 13, 2025 z Wenchang Space Launch Site

Loading…

Następne Przeloty (najbliższe 24 godziny)

TLE

ŚwieżeSource: Space-Track

Epoka: Sep 14, 2026, 14:49 UTC

1 65172U 25174J   26257.61777622  .00000053  00000-0  90339-4 0  9996
2 65172  86.4931 221.6788 0002257  78.9297 281.2091 13.24399418 52628

Śledź HULIANWANG DIGUI-66 w czasie rzeczywistym z AllMySat

Download on the App Store